Flag for Cote d'Ivoire (Ivory Coast) Weather past 2 weeks in Abidjan, Cote d'Ivoire (Ivory Coast)

Now
84 °F

Passing clouds.


Feels Like: 94 °F
Forecast: 80 / 89 °F
Wind: 5 mph from Southwest

Location: Abidjan Airport

Current Time: Apr 22, 2015 at 12:13:31 AM

Latest Report: Apr 21, 2015 at 11:30 PM


Visibility: 6 mi

Pressure: 29.89 "Hg

Humidity: 79%

Dew point: 77 °F

Location of AbidjanLocation

Historic Weather in Abidjan — Graph

°F

Abidjan temperature yesterday

Maximum temperature yesterday: 90 °F (at 12:00 PM)
Minimum temperature yesterday: 77 °F (at 6:00 AM)
Average temperature yesterday: 84 °F

Past Weeks' High & Low Weather Summary

 TemperatureHumidityPressure
High90 °F (Apr 7, 10:30 AM)100% (Apr 7, 7:30 AM)29.98 "Hg (Apr 7, 7:30 AM)
Low73 °F (Apr 8, 4:00 AM)63% (Apr 13, 1:30 PM)29.74 "Hg (Apr 7, 4:30 PM)
Average84 °F82%29.85 "Hg
* Reported Apr 6 11:00 PM — Apr 21 11:00 PM, Abidjan, Weather by CustomWeather, © 2015

Note: Actual official high and low records may vary slightly from our data, if they occured in-between our weather recording intervals... More about our weather records

Advertising

Abidjan weather history for previous 24 hours

 ConditionsComfort  
Time TempWeatherWind HumidityBarometerVisibility
11:00 PM
Tue, Apr 21
84 °FPassing clouds.6 mph79%29.89 "Hg6 mi
10:30 PM84 °FPassing clouds.7 mph79%29.89 "Hg6 mi
10:00 PM84 °FPassing clouds.7 mph79%29.89 "Hg6 mi
9:00 PM84 °FPassing clouds.7 mph79%29.86 "Hg6 mi
8:30 PM84 °FPassing clouds.7 mph79%29.86 "Hg6 mi
8:00 PM84 °FPassing clouds.7 mph79%29.86 "Hg6 mi
7:30 PM84 °FPassing clouds.9 mph84%29.83 "Hg5 mi
7:00 PM84 °FPassing clouds.8 mph79%29.83 "Hg5 mi
6:30 PM86 °FPassing clouds.10 mph79%29.80 "Hg5 mi
6:00 PM86 °FScattered clouds.8 mph79%29.80 "Hg5 mi
5:30 PM88 °FScattered clouds.9 mph75%29.80 "Hg5 mi
5:00 PM88 °FScattered clouds.9 mph75%29.80 "Hg5 mi
4:30 PM88 °FScattered clouds.10 mph75%29.77 "Hg5 mi
4:00 PM90 °FPassing clouds.9 mph71%29.80 "Hg5 mi
3:30 PM90 °FPassing clouds.12 mph71%29.80 "Hg5 mi
3:00 PM90 °FPassing clouds.12 mph71%29.80 "Hg5 mi
2:30 PM90 °FPassing clouds.12 mph71%29.80 "Hg5 mi
2:00 PM90 °FPassing clouds.10 mph71%29.80 "Hg5 mi
1:30 PM90 °FScattered clouds.9 mph71%29.83 "Hg5 mi
1:00 PM90 °FScattered clouds.9 mph71%29.83 "Hg5 mi
12:30 PM90 °FPassing clouds.9 mph71%29.83 "Hg4 mi
12:00 PM90 °FPassing clouds.9 mph71%29.86 "Hg4 mi
11:30 AM88 °FScattered clouds.9 mph75%29.86 "Hg4 mi
11:00 AM88 °FScattered clouds.9 mph75%29.86 "Hg4 mi
10:30 AM88 °FScattered clouds.8 mph75%29.86 "Hg4 mi
10:00 AM88 °FScattered clouds.10 mph75%29.86 "Hg4 mi
9:00 AM86 °FScattered clouds.2 mph84%29.86 "Hg4 mi
8:30 AM82 °FScattered clouds.2 mph94%29.86 "Hg4 mi
8:00 AM82 °FPartly sunny.1 mph94%29.86 "Hg4 mi
7:30 AM79 °FScattered clouds.1 mph94%29.83 "Hg4 mi
7:00 AM79 °FScattered clouds.No wind100%29.83 "Hg4 mi
6:30 AM77 °FScattered clouds.5 mph100%29.80 "Hg4 mi
6:00 AM77 °FPassing clouds.5 mph100%29.80 "Hg4 mi
5:30 AM79 °FPassing clouds.3 mph94%29.80 "Hg5 mi
5:00 AM79 °FPassing clouds.3 mph94%29.80 "Hg5 mi
4:30 AM79 °FPassing clouds.2 mph94%29.80 "Hg5 mi
4:00 AM79 °FPartly cloudy.2 mph94%29.80 "Hg5 mi
3:30 AM79 °FPartly cloudy.2 mph94%29.80 "Hg5 mi
3:00 AM79 °FPartly cloudy.2 mph94%29.80 "Hg5 mi
2:30 AM79 °FPartly cloudy.3 mph94%29.80 "Hg5 mi
2:00 AM79 °FPartly cloudy.3 mph94%29.80 "Hg5 mi
1:30 AM79 °FPassing clouds.2 mph94%29.83 "Hg4 mi
1:00 AM79 °FThunderstorms. Passing clouds.2 mph94%29.83 "Hg4 mi
12:30 AM79 °FThunderstorms. Passing clouds.3 mph94%29.83 "Hg4 mi
12:00 AM79 °FThunderstorms. Partly cloudy.1 mph89%29.86 "Hg4 mi
Weather by CustomWeather, © 2015

See weather overviewHow to use our weather pages